Hourly Weather Roundup
Issued by NWS Central Illinois

Home | Current Version | Previous Version | Text Only | Print | Product List | Glossary On
Versions: 1 2 3 4 5 6 7 8 9 10 11 12 13 14 15 16 17 18 19 20 21 22 23 24 25 26 27 28 29 30 31 32 33 34 35 36 37 38 39 40 41 42 43 44 45 46 47 48 49 50
000
NZUS43 KILX 270610
HWRILX

AREA WEATHER ROUNDUP
NATIONAL WEATHER SERVICE, LINCOLN IL
100 AM CDT MON MAR 27 2017


CITY           SKY/WX    TMP DP  RH WIND       PRES   REMARKS
BLOOMINGTON    CLOUDY    48  47  96 W9        29.94S FOG
6HR MIN TEMP:  48; 6HR MAX TEMP:  50;

CHAMPAIGN      PTCLDY    46  43  89 SW7       29.93F
6HR MIN TEMP:  46; 6HR MAX TEMP:  56; 6HR PCP: TRACE;

DECATUR        CLOUDY    47  44  90 CALM      29.94F
6HR MIN TEMP:  46; 6HR MAX TEMP:  56;

EFFINGHAM      CLEAR     49  48  99 CALM      29.96S
6HR MIN TEMP:  48; 6HR MAX TEMP:  57;

FLORA          CLEAR     47  46  95 CALM      29.96S
6HR MIN TEMP:  47; 6HR MAX TEMP:  58;

GALESBURG      CLOUDY    47  46  95 W6        29.93R
6HR MIN TEMP:  47; 6HR MAX TEMP:  49;

JACKSONVILLE   CLOUDY    47  46  95 CALM      29.95S FOG
6HR MIN TEMP:  44; 6HR MAX TEMP:  52;

LACON          CLOUDY    49  48  98 W7        29.92S
6HR MIN TEMP:  49; 6HR MAX TEMP:  50;

LAWRENCEVILLE  CLEAR     47  46  97 CALM      29.96F
6HR MIN TEMP:  47; 6HR MAX TEMP:  60;

LITCHFIELD     PTCLDY    46  46  99 CALM      29.95S FOG
6HR MIN TEMP:  46; 6HR MAX TEMP:  55;

$$


CITY           SKY/WX    TMP DP  RH WIND       PRES   REMARKS
LINCOLN        CLEAR     47  47 100 CALM      29.94R FOG
6HR MIN TEMP:  47; 6HR MAX TEMP:  54;

MACOMB         CLOUDY    47  47 100 W6        29.96F
6HR MIN TEMP:  47; 6HR MAX TEMP:  49;

MATTOON        CLOUDY    51  49  92 SW3       29.93F
6HR MIN TEMP:  51; 6HR MAX TEMP:  56;

MT CARMEL AP   CLEAR     47  45  93 NE3       29.95F
6HR MIN TEMP:  46; 6HR MAX TEMP:  59;

OLNEY-NOBLE AP CLOUDY    45  45 100 CALM      29.95F FOG
PARIS          CLOUDY    50  48  93 SW6       29.95F
6HR MIN TEMP:  49; 6HR MAX TEMP:  56;

PEORIA         CLOUDY    49  48  97 SW8       29.94S FOG
6HR MIN TEMP:  49; 6HR MAX TEMP:  51;

PONTIAC        CLOUDY    50  49  98 W6        29.92F
6HR MIN TEMP:  50; 6HR MAX TEMP:  52;

RANTOUL        PTCLDY    51  50  95 W5        29.93F FOG
6HR MIN TEMP:  51; 6HR MAX TEMP:  56;

SPRINGFIELD    CLOUDY    48  45  89 W3        29.96R
6HR MIN TEMP:  47; 6HR MAX TEMP:  55;

TAYLORVILLE    CLOUDY    45  45 100 CALM      29.95S FOG
$$

...REGIONAL REPORTS...


CITY           SKY/WX    TMP DP  RH WIND       PRES   REMARKS
CHICAGO O`HARE DRIZZLE   52  50  93 SW10      29.87S FOG
KANKAKEE       CLOUDY    49  48  96 SW8       29.92S FOG
MOLINE         CLOUDY    49  45  86 W7        29.93R
MOUNT STERLING MOCLDY    42  42  99 CALM      29.94S
MOUNT VERNON   CLOUDY    45  44  97 CALM      29.96R
PITTSFIELD     CLOUDY    47  46  97 CALM      29.96S
QUINCY         CLOUDY    47  45  93 CALM      29.94R
ROCKFORD       DRIZZLE   47  46  97 N5        29.90F FOG
$$


CITY           SKY/WX    TMP DP  RH WIND       PRES   REMARKS
BURLINGTON     CLOUDY    47  47 100 CALM      29.94R FOG
CEDAR RAPIDS   CLOUDY    44  44 100 W3        29.91S
DES MOINES     CLOUDY    46  44  93 CALM      29.93S
KIRKSVILLE     CLOUDY    46  45  96 SE3       29.93F
OTTUMWA        CLOUDY    46  46 100 CALM      29.92F
ST LOUIS       CLOUDY    52  47  83 NE5       29.94S
$$


CITY           SKY/WX    TMP DP  RH WIND       PRES   REMARKS
TERRE HAUTE    CLOUDY    51  47  86 CALM      29.95F
EVANSVILLE     CLEAR     49  45  86 NE3       29.96F
INDIANAPOLIS   CLOUDY    51  48  89 SW8       29.95R
LAFAYETTE      CLOUDY    51  51 100 W8        29.93S FOG
MADISON        CLOUDY    41  39  93 NW6       29.88F
MILWAUKEE      FOG       43  40  89 CALM      29.87F VSB 3/4
$$






USA.gov is the U.S. government's official web portal to all federal, state and local government web resources and services.